LEMUR-2-VU

Last updated on Mon Feb 06 2023 00:02:07 GMT+0000 (Coordinated Universal Time)

1 43558U 18046E 23036.32383696 .03806331 11949-4 15407-2 0 9999 2 43558 51.6148 72.9336 0006447 47.8360 312.3206 16.22651842255928

Satellite not in orbit